Wind_Speed
21 22 22 22 23 23 24 24 24 24 24 25 25 25 26 26 27 27 27 26 27 28 28 28 28 28 29 29 30 29 29 30 30 30 31 31 31 30
21 21 21 22 22 23 23 24 24 25 25 25 25 26 26 26 27 27 27 27 28 28 28 28 29 29 29 30 31 31 31 31 31 31 31 31 31 31
22 22 22 22 23 23 23 23 24 25 25 25 26 27 27 27 27 27 27 28 28 29 29 28 29 30 30 31 31 32 32 32 32 32 32 32 32 32
23 23 23 23 23 23 23 23 24 24 25 25 25 26 26 26 27 27 28 28 28 29 29 29 30 31 31 32 32 32 32 33 33 33 33 33 33 33
24 24 24 24 25 25 25 25 25 25 25 25 25 26 26 27 27 27 27 27 27 28 28 29 29 30 31 31 32 32 32 33 33 33 34 33 33 33
25 25 25 25 25 26 26 26 26 26 26 26 26 26 26 27 27 28 28 28 28 29 29 29 29 30 30 31 31 31 32 33 34 34 34 34 34 34
25 26 26 26 27 26 26 26 26 25 25 25 26 27 27 27 28 29 29 29 30 30 30 30 30 30 31 31 32 32 33 33 34 34 34 34 34 34
25 26 27 27 27 26 26 27 27 26 26 26 27 27 28 28 28 29 29 30 30 31 31 30 30 30 30 31 32 33 33 33 33 33 33 33 33 33
26 26 26 26 26 26 26 26 26 27 28 28 28 28 28 28 28 29 30 30 30 30 31 30 30 30 30 30 31 32 33 33 33 33 33 33 33 34
26 26 27 27 27 27 27 27 27 27 28 28 28 28 28 28 29 29 30 31 30 30 30 30 30 31 31 31 31 31 31 32 32 32 33 33 34 34
27 28 28 28 28 28 27 27 27 27 27 28 29 29 28 29 29 30 31 31 31 31 31 31 30 31 31 31 31 31 31 31 32 32 32 33 34 34
28 28 29 29 29 28 28 27 28 28 29 30 30 30 29 29 30 31 32 31 31 30 30 30 30 30 29 30 30 30 31 31 31 32 32 33 34 34
28 28 29 28 28 29 29 29 30 30 30 31 31 30 30 30 31 31 32 31 30 30 30 31 31 30 29 29 29 29 30 31 32 32 32 33 34 34
28 28 28 28 28 28 29 30 30 30 30 30 30 30 30 30 30 30 31 31 31 30 30 30 31 31 30 30 30 29 29 30 30 31 31 32 32 32
29 29 29 29 29 29 29 29 29 30 30 30 30 30 30 31 31 30 31 31 32 31 31 31 31 31 31 31 30 30 30 30 30 30 30 30 30 31
29 29 30 30 29 28 28 28 29 29 29 30 30 31 31 31 30 30 31 31 31 31 31 31 32 31 31 31 30 30 30 30 31 31 30 30 30 29
29 29 29 29 29 29 29 28 29 29 30 30 31 31 31 31 30 31 31 31 31 32 32 31 31 31 31 30 30 29 29 30 30 30 29 29 28 29
28 28 29 29 29 28 28 28 28 29 29 30 30 30 30 30 30 31 31 31 31 32 32 31 31 30 30 29 29 29 29 29 28 28 28 28 28 28
27 27 27 28 28 28 28 27 27 28 29 28 29 29 29 30 30 31 31 31 30 30 31 30 30 30 28 28 27 28 28 28 27 27 26 27 27 28
27 27 27 27 28 28 27 27 28 28 28 28 28 29 29 29 29 29 30 30 29 29 29 29 29 29 28 27 27 27 27 26 26 26 26 26 26 26
26 27 27 27 27 27 27 28 28 28 28 28 28 29 29 29 29 28 29 29 28 28 28 28 28 27 27 27 26 26 27 26 25 25 25 25 25 25
26 27 27 27 27 27 28 28 28 28 29 29 28 29 29 29 28 28 27 27 26 27 27 27 27 27 28 28 26 26 26 26 26 25 24 24 24 24
26 26 27 27 27 28 28 28 28 29 29 29 29 29 29 29 28 27 27 26 25 25 26 26 26 26 26 26 26 26 25 25 25 25 25 24 24 24
Wind_Direction
271 273 272 272 273 274 274 273 272 270 268 267 268 268 267 268 267 267 268 268 268 268 268 268 267 266 264 264 264 265 264 264 264 263 263 263 263 264
273 273 272 273 273 272 272 271 271 271 270 269 268 269 268 269 268 268 268 268 268 270 270 269 268 267 266 265 265 265 265 265 264 263 264 263 262 264
272 271 271 273 274 273 273 273 272 272 271 270 269 268 269 269 269 269 270 269 269 270 271 271 270 268 267 266 266 266 265 264 264 264 263 263 263 264
270 270 270 271 273 273 273 274 275 274 273 273 272 270 269 271 271 271 271 271 271 270 271 272 271 270 269 268 267 266 266 265 265 264 263 263 263 265
270 269 269 270 271 272 273 274 275 276 275 274 272 272 269 270 270 272 272 272 272 272 272 272 271 271 271 269 268 267 266 266 266 265 264 263 263 264
269 268 269 270 272 273 273 274 275 276 275 274 273 272 271 270 270 271 272 272 273 274 274 274 272 271 270 269 268 268 267 266 266 265 265 264 264 264
270 269 269 270 272 274 275 275 276 276 275 275 275 274 274 273 272 272 273 273 273 275 276 275 273 271 270 269 268 268 268 267 266 265 264 264 264 264
271 271 270 271 272 274 273 273 273 274 276 277 277 276 275 276 276 275 275 274 275 276 277 277 276 274 272 270 269 268 267 266 265 264 263 263 264 264
274 272 272 272 273 274 274 273 273 273 275 276 277 277 276 276 276 277 276 275 275 276 276 276 275 275 274 273 271 269 267 266 265 264 264 263 263 263
274 274 274 272 272 274 274 275 275 275 276 276 278 278 277 277 278 278 277 276 275 276 277 275 273 275 275 275 273 271 269 266 265 264 264 264 263 262
273 274 273 272 272 273 274 275 276 277 277 278 278 278 279 280 279 279 279 279 278 277 276 276 275 274 275 275 273 272 271 269 267 266 265 264 263 262
273 273 271 272 273 274 275 275 276 277 278 279 279 279 280 281 281 279 278 279 278 277 276 276 276 277 276 276 275 273 272 271 269 268 266 265 264 263
274 273 272 271 272 274 274 276 277 278 279 279 280 280 280 281 281 280 279 279 279 277 274 274 274 275 275 276 276 275 274 273 272 270 269 267 266 263
275 274 273 271 273 274 273 275 277 278 279 280 281 282 282 282 282 282 280 278 278 277 274 273 273 273 273 274 275 275 275 275 275 274 272 270 268 265
273 273 273 272 274 275 275 276 278 279 280 281 281 282 282 283 284 283 281 279 277 276 274 273 272 272 272 273 273 274 274 274 274 274 274 272 270 267
274 273 273 273 275 275 277 278 280 281 281 281 282 283 283 284 284 283 283 281 279 277 275 273 271 271 272 271 271 272 272 273 273 274 273 272 271 268
276 276 274 273 275 277 278 280 281 282 282 282 283 283 283 284 284 283 283 283 280 278 277 273 271 271 270 269 269 269 271 272 272 273 272 272 270 267
275 276 275 274 276 277 278 281 282 283 283 284 284 284 284 284 284 284 283 283 281 279 277 274 272 270 268 267 268 268 269 270 271 272 272 272 269 267
276 277 277 277 276 277 279 281 283 284 285 286 287 286 286 287 287 285 284 282 281 280 278 275 273 272 268 267 268 267 269 270 270 271 272 271 268 266
275 276 278 277 277 277 278 280 281 282 284 286 287 287 287 287 288 286 284 282 281 280 278 275 272 271 267 266 267 267 267 269 270 270 271 271 268 266
276 277 278 278 278 278 278 280 279 281 283 286 286 287 286 287 287 285 284 282 280 279 277 274 272 271 268 266 265 265 266 268 269 270 270 269 268 266
278 279 279 279 279 279 280 280 280 282 283 285 287 288 287 286 285 284 284 282 280 279 275 274 273 271 269 266 264 263 263 265 266 267 267 268 268 267
277 278 279 280 280 279 279 280 281 282 283 283 284 286 286 285 284 284 282 281 280 278 276 274 273 271 270 268 265 263 263 264 265 266 265 265 265 264
Height
5814 5814 5813 5813 5812 5811 5810 5810 5809 5809 5809 5809 5808 5808 5808 5807 5807 5807 5807 5807 5806 5806 5806 5806 5806 5806 5806 5806 5806 5806 5807 5808 5808 5809 5809 5810 5811 5811
5808 5808 5807 5807 5806 5805 5804 5803 5803 5802 5802 5802 5801 5801 5800 5800 5800 5799 5799 5799 5799 5799 5799 5798 5798 5798 5798 5798 5798 5799 5799 5800 5800 5801 5801 5802 5803 5803
5802 5801 5801 5800 5799 5799 5798 5797 5796 5795 5795 5795 5794 5793 5793 5793 5792 5792 5791 5791 5791 5791 5791 5790 5790 5790 5790 5790 5790 5790 5791 5791 5791 5792 5792 5793 5794 5795
5795 5795 5794 5794 5793 5792 5791 5790 5790 5788 5788 5787 5786 5786 5785 5785 5785 5784 5784 5783 5783 5783 5782 5782 5781 5781 5781 5781 5781 5781 5782 5782 5783 5783 5784 5785 5786 5786
5788 5788 5787 5787 5786 5785 5784 5783 5783 5782 5781 5780 5779 5778 5778 5777 5777 5776 5776 5775 5775 5774 5774 5773 5772 5772 5772 5772 5772 5772 5772 5773 5774 5774 5774 5775 5776 5777
5781 5780 5780 5779 5779 5778 5777 5776 5775 5774 5773 5772 5772 5771 5770 5769 5769 5768 5768 5767 5766 5766 5765 5765 5764 5763 5763 5763 5763 5763 5763 5763 5764 5765 5765 5766 5767 5767
5773 5773 5772 5772 5771 5770 5770 5769 5768 5767 5766 5765 5764 5763 5762 5762 5761 5760 5759 5758 5758 5757 5757 5756 5755 5755 5754 5754 5754 5754 5754 5754 5754 5755 5756 5757 5757 5758
5765 5765 5764 5764 5763 5762 5762 5761 5760 5759 5758 5757 5757 5756 5755 5754 5753 5752 5751 5750 5750 5749 5748 5747 5746 5745 5744 5744 5744 5744 5744 5744 5744 5745 5746 5747 5748 5748
5757 5757 5756 5755 5755 5754 5753 5753 5752 5751 5751 5750 5749 5747 5747 5746 5745 5744 5742 5741 5741 5739 5738 5738 5736 5735 5735 5734 5734 5734 5734 5734 5735 5735 5736 5737 5738 5739
5750 5749 5748 5748 5747 5746 5745 5745 5744 5743 5743 5742 5741 5739 5738 5737 5736 5735 5733 5732 5731 5730 5729 5728 5727 5726 5726 5725 5725 5725 5724 5724 5725 5726 5726 5727 5728 5729
5742 5741 5740 5740 5739 5738 5738 5737 5736 5735 5734 5733 5732 5730 5729 5728 5726 5725 5724 5723 5722 5721 5720 5719 5718 5717 5717 5716 5716 5715 5715 5715 5716 5716 5717 5717 5718 5718
5734 5733 5732 5732 5731 5730 5729 5729 5728 5727 5725 5724 5723 5722 5720 5719 5717 5716 5715 5714 5712 5712 5711 5710 5709 5708 5708 5707 5706 5706 5706 5706 5707 5707 5707 5708 5708 5708
5725 5724 5724 5723 5722 5721 5721 5721 5719 5718 5716 5715 5714 5712 5711 5710 5708 5707 5706 5704 5703 5702 5702 5701 5700 5699 5699 5699 5698 5698 5697 5697 5697 5698 5698 5698 5698 5699
5717 5716 5715 5715 5714 5713 5712 5712 5710 5709 5708 5706 5705 5703 5702 5700 5699 5698 5696 5695 5694 5693 5692 5691 5691 5690 5690 5690 5690 5689 5688 5688 5688 5688 5688 5688 5688 5689
5708 5707 5707 5706 5705 5704 5704 5703 5701 5700 5699 5697 5696 5694 5692 5691 5689 5688 5686 5685 5684 5683 5682 5682 5681 5681 5681 5681 5681 5680 5680 5680 5679 5679 5679 5679 5679 5679
5699 5698 5698 5697 5697 5696 5695 5694 5692 5691 5689 5688 5686 5685 5683 5681 5679 5678 5676 5675 5674 5673 5672 5672 5672 5672 5671 5671 5671 5671 5671 5671 5671 5670 5670 5670 5670 5670
5690 5689 5689 5689 5688 5687 5686 5685 5683 5682 5680 5678 5677 5675 5673 5671 5670 5668 5667 5665 5664 5663 5662 5662 5662 5662 5662 5662 5662 5662 5662 5662 5662 5662 5662 5662 5662 5662
5681 5681 5680 5679 5679 5678 5677 5676 5674 5673 5671 5669 5667 5665 5664 5662 5660 5659 5657 5656 5655 5654 5653 5652 5652 5652 5652 5653 5653 5654 5653 5654 5653 5653 5653 5653 5654 5654
5673 5672 5672 5671 5670 5669 5668 5667 5665 5664 5662 5660 5658 5656 5655 5653 5651 5649 5648 5647 5645 5644 5644 5643 5643 5643 5644 5644 5644 5645 5645 5645 5645 5645 5645 5645 5645 5646
5664 5664 5663 5662 5661 5660 5659 5658 5657 5655 5653 5651 5650 5648 5646 5644 5642 5640 5639 5637 5636 5635 5635 5634 5634 5634 5635 5636 5636 5636 5637 5637 5637 5637 5637 5637 5637 5638
5656 5655 5655 5654 5653 5652 5650 5649 5648 5646 5645 5643 5641 5639 5637 5635 5633 5631 5630 5629 5627 5627 5626 5626 5626 5626 5626 5626 5627 5628 5629 5629 5629 5629 5630 5630 5630 5630
5648 5647 5646 5645 5644 5643 5641 5640 5639 5638 5636 5634 5632 5631 5629 5627 5625 5623 5621 5620 5619 5618 5618 5618 5617 5617 5618 5618 5619 5619 5620 5621 5621 5621 5622 5622 5622 5622
5639 5638 5637 5636 5635 5634 5633 5631 5630 5628 5627 5625 5623 5622 5620 5618 5616 5615 5613 5612 5611 5610 5610 5609 5609 5609 5609 5609 5610 5611 5611 5612 5612 5613 5614 5614 5615 5615